TimeEST,TemperatureF,Dew PointF,Humidity,Sea Level PressureIn,VisibilityMPH,Wind Direction,Wind SpeedMPH,Gust SpeedMPH,PrecipitationIn,Events,Conditions,WindDirDegrees,DateUTC
12:53 AM,27.0,21.9,81,30.25,10.0,South,3.5,-,N/A,,Clear,190,2012-12-12 05:53:00
1:53 AM,27.0,23.0,85,30.26,10.0,SSE,5.8,-,N/A,,Clear,160,2012-12-12 06:53:00
2:53 AM,27.0,21.0,78,30.27,10.0,South,5.8,-,N/A,,Clear,190,2012-12-12 07:53:00
3:53 AM,21.9,21.0,96,30.28,10.0,South,4.6,-,N/A,,Clear,170,2012-12-12 08:53:00
4:53 AM,26.1,23.0,88,30.30,10.0,South,4.6,-,N/A,,Clear,170,2012-12-12 09:53:00
5:53 AM,26.1,21.9,84,30.32,9.0,SSE,5.8,-,N/A,,Clear,160,2012-12-12 10:53:00
6:53 AM,26.1,21.9,84,30.34,7.0,SSE,4.6,-,N/A,,Clear,160,2012-12-12 11:53:00
7:53 AM,26.1,21.9,84,30.35,7.0,SSE,3.5,-,N/A,,Clear,160,2012-12-12 12:53:00
8:53 AM,25.0,23.0,92,30.36,7.0,SSE,3.5,-,N/A,,Clear,150,2012-12-12 13:53:00
9:53 AM,32.0,26.1,79,30.37,8.0,SSE,4.6,-,N/A,,Clear,160,2012-12-12 14:53:00
10:53 AM,36.0,27.0,70,30.40,10.0,South,4.6,-,N/A,,Clear,190,2012-12-12 15:53:00
11:53 AM,39.9,27.0,60,30.38,10.0,SSW,5.8,-,N/A,,Clear,200,2012-12-12 16:53:00
12:53 PM,42.1,27.0,55,30.37,10.0,South,5.8,-,N/A,,Clear,190,2012-12-12 17:53:00
1:53 PM,43.0,26.1,51,30.35,10.0,South,4.6,-,N/A,,Clear,180,2012-12-12 18:53:00
2:53 PM,44.1,26.1,49,30.34,10.0,SSW,4.6,-,N/A,,Clear,210,2012-12-12 19:53:00
3:53 PM,44.1,26.1,49,30.34,10.0,SSW,8.1,-,N/A,,Clear,210,2012-12-12 20:53:00
4:53 PM,41.0,27.0,57,30.34,10.0,South,3.5,-,N/A,,Clear,180,2012-12-12 21:53:00
5:53 PM,37.0,26.1,65,30.35,10.0,SE,3.5,-,N/A,,Clear,140,2012-12-12 22:53:00
6:53 PM,36.0,25.0,64,30.36,10.0,SE,4.6,-,N/A,,Clear,130,2012-12-12 23:53:00
7:53 PM,32.0,25.0,75,30.37,10.0,SE,5.8,-,N/A,,Clear,130,2012-12-13 00:53:00
8:53 PM,33.1,27.0,78,30.38,10.0,SSE,4.6,-,N/A,,Clear,150,2012-12-13 01:53:00
9:53 PM,33.1,25.0,72,30.38,10.0,SE,5.8,-,N/A,,Clear,140,2012-12-13 02:53:00
10:53 PM,32.0,25.0,75,30.38,10.0,SSE,4.6,-,N/A,,Clear,150,2012-12-13 03:53:00
11:53 PM,28.9,21.9,75,30.37,10.0,ESE,3.5,-,N/A,,Clear,110,2012-12-13 04:53:00